Temperature
17 17 16 16 15 14 14 14 14 13 13 13 12 12 12 12 12 12 12 12 12 12 12 12 12 12 12 13 13 14 14 14 13 13 13 13 13 13 13 13 13 13 13
18 17 16 16 15 14 14 14 14 13 13 12 12 12 12 12 12 12 12 12 12 12 12 12 12 12 12 13 13 13 13 13 13 12 12 12 12 12 12 12 12 12 12
17 17 16 16 15 14 14 14 13 13 13 12 12 12 12 11 11 11 11 11 11 11 11 12 12 12 12 13 13 13 13 12 12 11 11 11 11 11 11 11 11 11 12
17 17 16 16 15 15 14 14 14 13 13 12 12 11 11 11 11 11 11 11 11 11 11 12 12 12 12 13 13 13 13 12 11 11 11 11 11 11 11 11 11 11 11
17 17 16 16 15 15 14 14 13 13 13 12 12 11 11 11 11 11 11 11 11 11 11 12 12 12 12 13 13 13 12 12 11 11 11 11 11 10 10 10 10 10 11
16 16 16 15 15 14 14 14 13 13 13 12 11 11 11 11 11 11 11 11 11 11 12 12 12 12 12 13 13 12 12 11 11 11 11 11 11 10 10 10 10 10 10
16 16 16 15 15 14 14 14 13 13 13 12 12 11 11 11 11 11 11 11 11 11 11 12 12 12 12 12 12 12 12 11 11 10 10 10 10 10 10 10 10 10 10
16 16 16 15 15 14 14 14 13 13 12 12 12 11 11 11 11 11 11 11 11 11 11 11 12 12 12 12 12 12 12 11 10 10 10 10 10 10 9 9 9 9 9
16 16 16 15 15 14 14 14 13 13 12 12 12 11 11 11 11 11 11 11 11 11 11 11 12 12 12 12 12 11 11 11 10 10 10 10 10 10 9 9 9 9 9
16 16 16 15 15 14 14 14 13 13 12 12 12 12 11 11 11 11 11 11 11 11 11 11 11 11 11 11 11 11 11 10 10 10 10 10 10 9 9 9 9 9 9
16 15 15 15 15 14 14 14 13 13 12 12 12 11 11 11 11 11 11 11 11 11 11 11 11 11 11 11 11 11 11 10 10 10 10 10 10 10 9 9 9 9 9
16 16 15 15 14 14 13 13 13 13 12 12 12 11 11 11 10 10 11 11 11 11 11 11 11 11 11 10 10 10 10 10 10 10 10 10 10 10 9 9 9 9 9
17 16 15 15 14 14 13 13 13 13 12 12 11 11 11 10 10 10 10 11 11 11 10 10 10 10 10 10 10 10 10 10 10 10 10 10 10 10 9 9 9 9 9
17 16 16 15 15 14 13 13 13 12 12 12 11 11 11 11 10 10 10 10 10 10 10 10 10 10 10 10 10 10 10 10 10 10 10 10 10 10 10 9 9 9 9
17 16 16 15 15 14 14 13 13 12 12 12 12 11 11 11 11 10 10 10 10 10 10 10 10 10 10 10 10 10 10 10 10 10 10 10 10 10 10 10 9 9 9
17 17 16 15 15 14 14 13 13 13 12 12 12 11 11 11 11 10 10 10 10 10 10 10 10 10 10 10 10 10 10 10 10 10 10 10 10 10 10 10 10 9 9
18 17 16 16 15 15 14 14 13 13 13 12 12 12 11 11 11 11 10 10 10 10 10 10 10 10 10 10 10 10 10 10 10 10 10 10 10 10 10 10 10 9 9
19 18 17 16 15 15 14 14 13 13 13 12 12 12 12 11 11 11 11 10 10 10 10 10 10 10 10 10 10 10 10 10 10 10 10 10 10 10 10 10 10 9 9
19 18 17 16 16 15 15 14 14 13 13 13 12 12 12 11 11 11 11 10 10 10 10 10 10 10 10 10 10 10 10 10 10 10 10 10 10 10 10 10 10 9 9
19 18 17 17 16 15 14 14 13 13 13 13 12 12 12 12 11 11 11 11 10 10 10 10 10 10 9 9 9 10 10 10 10 10 10 10 10 10 9 9 9 9 9
19 18 17 17 16 15 15 14 13 13 13 13 12 12 12 12 12 11 11 11 10 10 10 10 10 9 9 9 9 9 10 10 10 10 10 10 10 9 9 9 9 9 9
19 18 18 17 16 16 15 15 14 14 13 13 13 12 12 12 12 11 11 11 11 10 10 10 10 9 9 9 9 9 8 9 9 10 9 9 9 9 9 9 9 8 8
19 18 18 17 16 16 15 14 14 13 13 12 12 12 12 12 12 12 11 11 11 10 10 10 10 9 9 9 9 9 8 8 9 9 9 9 9 9 9 8 8 8 8
19 18 18 17 16 16 15 15 14 14 14 14 14 13 13 12 12 12 12 11 11 10 10 10 10 9 9 9 9 9 9 8 8 8 8 8 8 8 8 8 8 8 7
19 18 18 17 17 16 15 15 15 14 14 14 13 13 12 12 12 12 12 11 11 11 10 10 10 9 9 9 9 9 8 8 8 8 7 8 8 8 7 7 7 7 7
19 18 18 17 17 16 16 15 15 15 14 14 13 13 12 12 12 12 12 11 11 11 10 10 10 9 9 9 9 8 8 8 8 8 7 7 7 7 7 7 7 6 6
Wind_Speed
11 16 19 17 16 15 14 13 12 12 13 13 13 13 13 13 13 13 14 14 15 15 16 16 16 16 17 17 17 17 17 16 16 17 17 18 18 18 18 18 16 15 17
15 19 20 18 17 15 14 14 13 13 13 13 13 13 13 13 13 13 13 14 14 14 15 15 15 15 16 16 15 15 15 14 13 13 14 16 17 17 17 16 16 14 16
16 20 19 18 17 16 15 14 14 13 13 13 12 12 12 12 12 12 13 13 13 13 13 14 14 14 14 14 14 14 13 12 11 11 12 13 15 15 15 15 15 15 14
17 20 18 19 18 16 15 15 14 13 12 12 12 11 11 11 11 11 12 12 12 12 12 13 13 13 13 13 13 12 11 11 11 12 13 14 13 13 13 13 13 13 13
15 19 20 20 18 17 16 15 14 13 12 12 11 11 10 11 11 11 11 11 11 11 11 12 12 12 12 12 12 11 10 10 10 11 13 14 13 12 12 12 12 12 12
14 19 21 20 18 17 16 15 15 13 12 12 11 10 10 10 10 10 10 10 10 10 10 10 10 11 10 10 10 9 9 11 10 10 12 13 12 11 11 10 10 11 11
13 19 21 20 19 17 16 15 15 13 12 12 11 10 10 10 9 9 9 9 9 9 9 9 9 9 9 9 9 8 9 11 8 8 11 12 10 10 10 10 10 10 10
13 18 19 20 19 18 17 16 15 14 13 12 11 10 10 9 9 8 8 8 8 7 8 8 8 8 8 8 7 7 8 9 8 7 10 10 9 9 9 9 9 9 10
13 16 16 17 17 17 17 16 16 14 13 12 11 11 10 9 8 8 8 8 7 7 7 6 6 6 6 6 5 5 7 9 7 5 8 9 8 8 8 8 8 9 9
11 13 15 16 17 16 16 16 16 15 14 13 12 11 11 10 9 9 9 8 7 6 5 5 5 4 3 3 2 3 6 9 5 6 9 7 7 7 7 7 8 8 8
11 11 13 14 16 17 17 17 17 15 14 14 13 13 12 11 11 10 10 8 6 5 4 3 2 1 0 1 2 3 6 5 4 7 8 6 6 6 7 7 7 7 8
12 11 11 12 13 15 15 17 15 14 15 14 14 15 13 11 11 11 12 10 7 6 5 4 3 3 4 4 4 5 5 3 4 6 6 5 5 5 5 5 6 6 7
12 11 11 11 12 12 10 14 12 13 14 15 16 17 13 10 11 12 11 10 9 8 7 6 6 6 4 2 2 3 2 3 3 6 6 5 3 3 4 4 5 5 6
12 12 11 11 10 11 11 10 10 10 11 11 13 15 12 7 7 9 8 10 10 9 7 5 5 4 2 2 2 0 1 1 2 5 6 4 2 2 3 3 3 4 4
14 13 12 12 12 10 8 7 9 8 10 11 13 14 12 7 5 6 7 8 7 7 6 4 3 2 2 1 0 1 1 1 1 4 5 4 2 1 2 2 3 3 4
15 15 13 13 12 10 9 7 7 8 10 12 12 12 13 10 7 6 4 5 5 6 6 4 3 2 1 1 1 1 1 1 1 3 6 6 4 2 2 2 3 3 4
14 15 15 14 13 13 11 9 7 8 10 8 11 14 13 11 9 6 4 4 5 7 6 4 2 1 1 1 2 2 1 2 2 3 5 7 7 5 4 3 4 4 5
12 14 15 14 14 14 11 9 6 8 9 8 11 13 14 13 12 8 4 4 7 7 5 3 2 2 2 2 2 2 2 2 4 4 5 6 7 7 6 6 5 5 6
12 14 15 14 14 14 12 9 7 7 8 9 11 11 13 14 14 10 6 6 8 5 4 4 3 3 3 2 2 2 3 3 4 4 5 6 7 7 7 8 8 7 8
12 13 14 15 14 13 11 8 7 7 7 7 9 11 14 13 14 11 7 7 7 4 4 4 4 3 3 3 2 3 4 4 4 5 5 6 8 9 9 9 9 9 10
12 12 14 14 14 12 10 10 9 8 7 7 6 11 13 14 14 11 6 6 6 6 6 6 5 5 4 3 1 3 4 6 6 6 5 4 6 9 10 10 10 9 9
13 13 14 15 14 13 11 10 8 8 7 7 6 8 12 13 14 12 9 7 7 6 7 7 5 4 4 4 3 2 3 3 4 6 5 5 5 6 7 10 10 10 10
12 13 13 14 14 13 11 8 7 6 5 6 8 8 9 12 13 12 10 8 8 8 7 8 7 7 5 4 4 4 3 4 3 3 5 5 5 5 5 7 10 12 12
11 11 12 13 13 13 13 11 11 10 9 9 8 8 8 11 11 12 11 10 9 7 8 8 8 6 6 5 4 5 5 3 2 3 3 4 6 6 6 6 7 10 12
10 10 10 11 13 13 13 13 13 11 9 7 7 9 10 9 10 11 11 9 9 8 8 8 7 7 6 6 5 4 5 4 5 4 5 4 4 5 6 6 6 7 11
9 9 10 11 12 13 14 14 14 13 11 10 10 10 9 7 8 10 10 9 9 8 8 8 8 8 8 7 6 5 4 4 5 5 7 6 6 5 6 6 6 6 9
Wind_Direction
128 137 146 142 139 134 127 122 114 108 105 103 98 94 90 86 82 80 78 76 73 71 69 68 66 66 65 64 62 62 61 62 63 63 62 60 57 56 53 50 52 49 50
133 139 146 144 142 137 131 125 118 112 109 105 101 97 93 90 87 83 80 77 75 73 70 69 68 67 66 65 64 62 61 59 57 56 60 61 57 56 54 51 51 49 48
132 138 146 146 144 140 135 130 124 118 114 109 105 101 98 95 91 86 81 78 76 74 72 71 70 68 66 65 64 62 57 49 39 38 53 60 55 52 51 49 48 47 45
134 142 147 147 146 143 140 135 131 126 122 117 112 107 103 99 95 90 85 82 79 77 75 73 71 69 67 65 64 61 52 38 28 36 51 54 51 49 47 45 44 43 41
135 141 144 149 148 146 144 140 137 132 128 123 119 114 109 105 98 93 90 86 84 81 78 75 72 69 68 66 63 56 42 22 19 41 55 57 47 45 45 43 41 40 37
136 136 145 152 151 150 148 145 141 137 133 130 125 121 116 109 104 98 94 91 88 85 82 78 75 72 68 64 60 49 29 10 29 51 58 56 41 36 40 39 36 36 35
139 136 148 155 155 153 152 150 147 143 140 137 133 128 122 116 111 104 101 97 93 89 84 80 77 71 67 62 55 42 19 359 32 58 67 60 42 35 34 34 34 33 32
137 137 150 157 158 157 156 155 153 150 147 144 141 135 129 125 121 116 112 106 100 93 86 82 77 71 65 60 49 32 9 359 10 45 72 62 45 35 33 33 32 32 31
136 138 149 158 160 160 160 159 158 157 154 152 148 144 139 136 135 130 123 116 109 101 92 85 79 73 64 56 43 18 352 341 347 29 65 55 42 32 31 35 32 30 29
140 145 154 160 162 164 164 164 162 162 161 158 153 149 149 151 149 144 134 127 121 113 103 93 85 77 69 62 37 345 325 321 346 58 66 52 39 30 31 34 30 29 29
154 157 159 163 165 167 167 166 162 164 164 159 157 158 162 170 165 156 140 140 139 135 130 122 123 134 189 225 239 285 302 300 57 75 72 52 40 30 29 30 26 26 25
169 170 165 163 164 167 167 161 168 171 169 173 172 174 188 189 164 152 149 156 162 167 168 177 203 232 237 217 227 258 285 331 60 90 84 62 41 24 18 25 24 23 22
175 176 169 166 163 164 159 163 174 175 175 189 184 182 192 170 145 147 158 169 181 189 195 202 221 233 224 182 222 247 326 16 48 83 94 76 41 12 10 20 19 19 15
176 179 174 168 164 166 163 170 172 173 177 186 184 184 183 165 162 163 170 176 185 191 186 198 218 221 212 217 231 263 11 19 90 106 109 96 50 8 359 2 6 5 6
179 179 178 172 168 168 167 171 175 176 177 177 178 186 177 163 172 167 177 172 185 175 173 202 222 207 204 215 239 298 286 252 150 130 134 135 115 359 338 341 341 340 345
180 178 177 177 172 170 173 175 177 178 175 175 172 182 180 174 175 165 176 167 177 174 184 196 210 188 199 189 225 269 293 294 227 156 156 162 171 197 268 302 307 313 318
181 176 177 180 176 174 178 181 181 179 173 171 171 183 183 180 176 166 172 170 181 185 190 198 209 193 208 221 232 234 245 269 262 209 184 175 180 193 221 258 281 287 295
178 175 177 179 179 178 180 183 182 180 176 173 173 182 186 185 179 174 172 180 187 182 183 185 196 208 224 227 234 242 219 219 244 233 207 192 189 191 207 231 253 265 277
180 175 174 174 180 181 180 180 183 181 179 176 176 180 186 187 183 178 178 185 187 183 188 191 197 199 217 228 230 239 239 229 226 228 220 206 202 199 203 219 232 245 260
182 176 173 174 180 180 178 178 183 184 182 180 179 182 183 187 185 182 180 186 186 182 195 196 202 206 209 216 243 252 242 234 229 227 224 208 204 210 216 220 223 233 245
179 178 176 175 180 180 179 182 186 190 186 184 183 183 184 187 187 184 183 186 186 191 197 197 194 205 216 202 229 278 267 240 234 225 216 210 209 212 219 225 225 227 232
179 181 179 179 180 183 183 183 184 182 184 186 183 188 190 190 190 190 186 188 189 192 198 201 195 196 208 184 181 228 291 292 264 234 219 217 220 214 218 225 229 232 229
183 183 183 181 180 182 176 172 170 171 176 186 191 195 194 194 194 192 192 188 192 192 198 201 196 194 205 209 192 184 210 246 279 264 233 221 220 226 226 223 228 233 232
185 180 179 178 178 179 175 178 179 185 193 198 191 193 194 196 197 195 194 194 196 196 198 201 199 196 194 210 217 216 214 205 230 283 275 243 230 231 230 229 229 230 230
177 175 177 175 178 178 180 184 188 195 197 192 188 189 194 198 196 195 195 194 199 200 200 200 200 200 201 206 205 205 226 240 229 231 266 267 256 242 233 231 227 228 230
171 170 174 176 180 179 183 188 193 196 194 191 194 194 195 197 197 195 193 194 198 199 200 202 202 203 206 209 210 202 195 203 216 219 244 257 259 251 239 236 231 228 232
Height
1516 1517 1519 1521 1523 1524 1526 1527 1528 1529 1530 1531 1531 1532 1532 1533 1533 1533 1533 1534 1534 1535 1535 1535 1535 1534 1534 1534 1534 1535 1535 1535 1535 1535 1535 1535 1535 1535 1534 1534 1534 1534 1534
1514 1516 1519 1521 1523 1524 1526 1527 1528 1529 1530 1531 1532 1532 1533 1533 1533 1534 1534 1534 1535 1535 1535 1535 1535 1535 1535 1535 1535 1536 1536 1536 1536 1536 1536 1536 1536 1535 1535 1535 1535 1534 1534
1514 1516 1519 1521 1522 1524 1526 1527 1528 1529 1530 1531 1532 1533 1533 1534 1534 1534 1535 1535 1535 1535 1536 1536 1536 1536 1536 1536 1536 1537 1537 1537 1538 1538 1537 1537 1537 1536 1536 1535 1535 1535 1534
1514 1516 1518 1520 1522 1524 1526 1527 1528 1530 1531 1531 1532 1533 1534 1534 1535 1535 1535 1536 1536 1536 1536 1536 1537 1537 1537 1537 1537 1538 1538 1538 1539 1538 1538 1537 1537 1537 1536 1536 1536 1535 1535
1514 1516 1518 1520 1522 1524 1526 1527 1528 1530 1531 1532 1533 1533 1534 1535 1535 1536 1536 1536 1537 1537 1537 1537 1537 1537 1537 1538 1538 1538 1538 1539 1539 1539 1538 1538 1537 1537 1537 1536 1536 1536 1535
1514 1516 1518 1520 1522 1524 1526 1527 1529 1530 1531 1532 1533 1534 1535 1535 1536 1536 1537 1537 1537 1538 1538 1538 1538 1538 1538 1538 1538 1539 1539 1539 1539 1539 1538 1538 1538 1537 1537 1536 1536 1536 1535
1514 1515 1518 1520 1522 1524 1526 1527 1529 1530 1531 1532 1533 1534 1535 1535 1536 1537 1537 1538 1538 1538 1539 1539 1539 1539 1539 1539 1539 1539 1539 1539 1539 1539 1538 1538 1538 1538 1537 1537 1536 1536 1535
1514 1514 1517 1520 1522 1523 1525 1527 1528 1530 1531 1532 1533 1534 1535 1536 1536 1537 1538 1538 1539 1539 1539 1539 1539 1539 1539 1539 1540 1540 1540 1539 1540 1539 1539 1538 1538 1537 1537 1536 1536 1535 1535
1514 1514 1516 1519 1521 1523 1525 1526 1528 1529 1530 1532 1533 1534 1535 1536 1537 1537 1538 1538 1539 1539 1540 1540 1540 1540 1540 1540 1540 1540 1540 1540 1540 1540 1539 1538 1538 1537 1537 1536 1536 1535 1534
1513 1514 1515 1517 1519 1522 1524 1526 1527 1529 1530 1531 1533 1534 1535 1536 1537 1537 1538 1538 1539 1539 1540 1540 1540 1540 1540 1540 1540 1540 1540 1540 1540 1539 1539 1538 1538 1537 1537 1536 1535 1534 1534
1512 1513 1514 1516 1518 1520 1522 1524 1526 1528 1529 1531 1532 1533 1534 1535 1536 1537 1538 1539 1539 1539 1540 1540 1540 1540 1540 1540 1540 1540 1540 1540 1540 1539 1538 1538 1537 1537 1536 1535 1535 1534 1533
1509 1511 1513 1515 1516 1519 1521 1523 1524 1526 1528 1529 1531 1533 1534 1535 1536 1537 1538 1539 1539 1539 1540 1540 1540 1540 1540 1540 1540 1540 1540 1540 1539 1538 1538 1537 1537 1536 1536 1535 1534 1533 1533
1506 1509 1511 1513 1515 1517 1519 1521 1523 1524 1526 1528 1530 1532 1533 1535 1536 1537 1537 1538 1539 1539 1539 1540 1540 1540 1540 1540 1540 1540 1540 1539 1539 1538 1537 1537 1536 1536 1535 1534 1533 1532 1532
1503 1506 1508 1511 1513 1515 1517 1519 1521 1523 1525 1527 1529 1531 1532 1534 1535 1536 1536 1537 1538 1538 1539 1539 1539 1540 1540 1540 1540 1539 1539 1538 1538 1537 1536 1536 1535 1535 1534 1533 1532 1531 1530
1499 1502 1505 1507 1509 1512 1514 1517 1519 1521 1523 1525 1527 1529 1531 1532 1534 1535 1535 1536 1537 1538 1538 1538 1539 1539 1539 1539 1539 1538 1538 1537 1537 1536 1535 1535 1534 1533 1532 1532 1531 1530 1529
1495 1498 1501 1504 1506 1508 1511 1513 1516 1519 1521 1523 1524 1526 1528 1530 1531 1533 1534 1535 1536 1536 1537 1537 1537 1538 1538 1538 1537 1537 1537 1536 1536 1535 1534 1533 1533 1532 1531 1530 1529 1528 1527
1491 1493 1496 1499 1502 1505 1507 1510 1513 1516 1518 1520 1521 1524 1526 1527 1529 1530 1532 1533 1534 1534 1535 1536 1536 1536 1536 1536 1536 1535 1535 1534 1534 1533 1532 1531 1531 1530 1529 1528 1527 1526 1525
1487 1489 1492 1495 1498 1500 1503 1506 1509 1512 1515 1516 1518 1520 1522 1524 1526 1527 1529 1530 1531 1532 1533 1533 1534 1534 1534 1534 1533 1533 1533 1532 1532 1531 1530 1529 1528 1528 1527 1526 1525 1524 1523
1482 1484 1487 1490 1493 1496 1499 1503 1506 1509 1511 1513 1515 1517 1519 1521 1523 1524 1525 1527 1528 1529 1530 1531 1531 1531 1531 1531 1531 1531 1530 1530 1529 1528 1527 1527 1526 1525 1524 1523 1522 1521 1520
1476 1479 1482 1485 1488 1492 1496 1499 1502 1505 1507 1509 1511 1513 1515 1517 1519 1520 1522 1523 1525 1526 1527 1528 1528 1529 1529 1529 1528 1528 1527 1526 1526 1525 1524 1523 1523 1522 1521 1520 1519 1518 1517
1470 1474 1476 1479 1483 1487 1490 1492 1496 1498 1501 1504 1506 1509 1511 1513 1515 1516 1518 1519 1521 1522 1523 1524 1525 1525 1525 1526 1525 1524 1523 1523 1522 1521 1521 1520 1519 1518 1517 1517 1515 1514 1513
1464 1468 1471 1474 1477 1481 1484 1487 1490 1494 1497 1499 1502 1504 1506 1508 1510 1512 1513 1515 1516 1518 1519 1520 1521 1521 1522 1522 1522 1521 1520 1519 1517 1517 1517 1516 1515 1514 1513 1513 1512 1510 1509
1458 1462 1466 1468 1472 1476 1479 1483 1487 1490 1493 1495 1497 1499 1501 1503 1505 1507 1509 1510 1512 1513 1514 1515 1516 1517 1517 1518 1519 1519 1517 1514 1514 1513 1512 1512 1511 1510 1509 1508 1507 1506 1504
1453 1457 1461 1464 1467 1470 1474 1477 1480 1482 1484 1487 1490 1493 1496 1498 1500 1502 1503 1505 1507 1508 1509 1510 1511 1512 1513 1513 1514 1514 1514 1512 1511 1508 1507 1507 1506 1505 1504 1503 1502 1501 1499
1448 1452 1456 1459 1462 1465 1468 1471 1474 1477 1480 1483 1486 1488 1490 1492 1494 1496 1498 1500 1501 1502 1504 1505 1506 1507 1508 1508 1508 1509 1509 1508 1507 1505 1502 1501 1501 1500 1499 1498 1497 1495 1494
1444 1447 1451 1454 1457 1460 1463 1466 1469 1471 1474 1477 1480 1482 1484 1487 1489 1491 1492 1494 1495 1497 1498 1499 1501 1502 1502 1503 1503 1503 1503 1503 1502 1501 1498 1495 1494 1493 1493 1492 1491 1489 1488